Stations météo

Publicité
Cherbourg, France (7024): Température de l'air & dewpoint: 12.12.2017 21:00:00 - 18.12.2017 21:00:00 (CET)Cherbourg, France (7024): Température de l'air 5cm: 12.12.2017 21:00:00 - 18.12.2017 21:00:00 (CET)Cherbourg, France (7024): Température de l'air -20cm & Température de l'air -100cm: 12.12.2017 21:00:00 - 18.12.2017 21:00:00 (CET)Cherbourg, France (7024): Vitesse du vent & gusts: 12.12.2017 21:00:00 - 18.12.2017 21:00:00 (CET)Cherbourg, France (7024): Direction du vent: 12.12.2017 21:00:00 - 18.12.2017 21:00:00 (CET)Cherbourg, France (7024): reduced air pressure: 12.12.2017 21:00:00 - 18.12.2017 21:00:00 (CET)Cherbourg, France (7024): visibility: 12.12.2017 21:00:00 - 18.12.2017 21:00:00 (CET)Cherbourg, France (7024): Ensoleillement: 12.12.2017 21:00:00 - 18.12.2017 21:00:00 (CET)Cherbourg, France (7024): Quantités de précipitations: 12.12.2017 21:00:00 - 18.12.2017 21:00:00 (CET)
Date & Time tt [°C] td [°C] tt 5cm [°C] tt -20cm [°C] tt -100cm [°C] ff [km/h] ff [knt] fx [km/h] fx [knt] dd ppp [hPa] vv [km] sd [min] rr [mm]
18.12.2017 21:00:00 3,4 1,8 -3,4 8,2 9,4 3 2 8 4 N 1033,9 10 0 0,0
18.12.2017 20:00:00 4,9 3,2 -2,8 8,2 9,4 5 3 8 5 NE 1033,3 10 0 0,0
18.12.2017 19:00:00 5,1 2,8 -2,3 8,2 9,5 5 3 9 5 NNE 1032,7 10 0 0,0
18.12.2017 18:00:00 5,3 2,6 -1,5 8,2 9,4 6 3 8 5 NNE 1032,0 45 0 0,0
18.12.2017 17:00:00 6,4 2,7 1,5 8,2 9,4 4 2 10 5 - 1031,5 10 24 0,0
18.12.2017 16:00:00 8,1 3,4 10,3 8,2 9,4 5 3 13 7 NNE 1031,1 10 60 0,0
18.12.2017 15:00:00 8,7 3,1 11,9 8,2 9,4 9 5 17 9 NE 1030,6 20 60 0,0
18.12.2017 14:00:00 8,6 2,6 11,5 8,2 9,4 11 6 20 11 NE 1030,3 10 60 0,0
18.12.2017 13:00:00 8,4 3,0 11,0 8,2 9,4 15 8 24 13 ENE 1030,1 10 60 0,0
18.12.2017 12:00:00 8,3 2,7 8,8 8,2 9,4 16 9 26 14 ENE 1029,8 20 58 0,0
18.12.2017 11:00:00 7,4 3,3 8,0 8,2 9,5 13 7 22 12 NE 1029,6 10 39 0,0
18.12.2017 10:00:00 6,8 3,6 3,9 8,2 9,4 11 6 27 15 NE 1028,4 19 21 0,0
18.12.2017 09:00:00 6,3 3,3 3,4 8,2 9,5 15 8 22 12 NNE 1027,5 10 0 0,0
18.12.2017 08:00:00 6,4 2,7 3,9 8,2 9,5 15 8 32 18 NNE 1026,9 10 0 0,0
18.12.2017 07:00:00 6,9 3,0 5,2 8,2 9,4 18 10 36 20 NNE 1026,0 10 0 0,0
18.12.2017 06:00:00 8,2 5,7 7,9 8,1 9,4 24 13 36 19 N 1025,2 10 0 0,0
18.12.2017 05:00:00 10,3 9,7 10,0 8,1 9,5 15 8 32 17 NNW 1024,4 10 0 0,0
18.12.2017 04:00:00 10,6 10,0 10,4 8,0 9,4 21 11 36 19 NW 1023,9 8 0 0,2
18.12.2017 03:00:00 10,7 10,1 10,5 8,0 9,5 24 13 44 24 WNW 1023,7 6 0 0,0
18.12.2017 02:00:00 10,7 10,1 10,4 7,9 9,5 26 14 46 25 WNW 1023,5 1,7 0 0,0
18.12.2017 01:00:00 10,7 10,1 10,3 7,9 9,5 34 18 48 26 W 1023,6 3,2 0 0,4
18.12.2017 00:00:00 10,5 9,9 10,1 7,8 9,5 28 15 49 26 W 1024,2 4,9 0 0,6
17.12.2017 23:00:00 10,5 9,7 9,7 7,8 9,5 29 16 53 29 W 1024,5 3,5 0 0,4
17.12.2017 22:00:00 10,1 9,3 9,2 7,8 9,5 31 17 46 25 W 1023,9 5 0 0,4
17.12.2017 21:00:00 10,0 8,4 9,1 7,7 9,5 31 17 48 26 W 1024,1 7 0 0,0
17.12.2017 20:00:00 9,8 7,9 8,4 7,7 9,5 29 16 44 24 W 1024,0 10 0 0,0
17.12.2017 19:00:00 9,1 7,4 8,0 7,6 9,5 28 15 44 24 WSW 1024,0 10 0 0,0
17.12.2017 18:00:00 8,7 7,6 8,1 7,6 9,5 26 14 38 21 WSW 1024,7 10 0 0,2
17.12.2017 17:00:00 8,6 7,7 8,0 7,6 9,5 21 11 31 17 WSW 1025,1 10 0 0,4
17.12.2017 16:00:00 8,5 7,4 8,2 7,5 9,5 16 9 27 15 WSW 1025,5 10 0 0,4
17.12.2017 15:00:00 8,4 7,5 8,0 7,5 9,5 16 9 27 15 WSW 1026,0 9 0 0,8
17.12.2017 14:00:00 8,3 6,6 7,9 7,5 9,5 15 8 28 15 SW 1026,2 10 0 0,0
17.12.2017 13:00:00 8,2 5,3 8,2 7,5 9,5 18 10 26 14 SW 1026,3 10 14 0,0
17.12.2017 12:00:00 7,2 4,2 6,2 7,5 9,5 13 7 18 10 S 1026,5 10 0 0,0
17.12.2017 11:00:00 6,1 3,8 5,1 7,5 9,5 9 5 12 7 SSW 1027,3 10 0 0,0
17.12.2017 10:00:00 5,4 3,1 3,1 7,5 9,5 9 5 10 6 SSW 1026,8 60 0 0,0
17.12.2017 09:00:00 4,9 2,1 1,5 7,5 9,5 8 4 9 5 WSW 1026,7 10 0 0,0
17.12.2017 08:00:00 5,3 1,9 0,3 7,5 9,5 5 3 8 5 WSW 1026,3 10 0 0,0
17.12.2017 07:00:00 5,0 1,5 -0,5 7,5 9,5 5 3 8 4 NW 1026,2 10 0 0,0
17.12.2017 06:00:00 5,6 1,5 0,6 7,5 9,5 4 2 11 6 - 1025,9 10 0 0,0
17.12.2017 05:00:00 5,5 1,0 0,3 7,6 9,5 5 3 18 10 N 1025,8 10 0 0,0
17.12.2017 04:00:00 5,9 1,4 2,2 7,5 9,5 10 6 18 10 N 1025,7 60 0 0,0
17.12.2017 03:00:00 6,1 2,0 2,9 7,5 9,5 9 5 26 14 N 1025,3 60 0 0,0
17.12.2017 02:00:00 6,5 2,2 3,2 7,5 9,5 11 6 29 15 N 1024,7 10 0 0,0
17.12.2017 01:00:00 6,7 2,2 3,6 7,5 9,6 14 8 33 18 NNW 1024,8 60 0 0,0
17.12.2017 00:00:00 6,9 2,8 3,9 7,5 9,6 16 9 37 20 N 1024,5 10 0 0,0
16.12.2017 23:00:00 6,9 4,0 5,0 7,5 9,5 13 7 47 26 NNW 1024,0 10 0 0,2
16.12.2017 22:00:00 7,6 3,6 5,6 7,5 9,6 16 9 34 19 NW 1023,4 10 0 0,0
16.12.2017 21:00:00 7,6 3,8 5,3 7,5 9,6 22 12 50 27 NW 1023,1 60 0 0,2
16.12.2017 20:00:00 6,9 4,0 5,3 7,5 9,6 37 20 52 28 WNW 1023,1 10 0 0,4
16.12.2017 19:00:00 7,3 2,0 6,3 7,5 9,6 25 14 41 22 W 1022,8 60 0 0,0
16.12.2017 18:00:00 7,5 0,5 6,0 7,5 9,6 26 14 44 24 WNW 1022,6 60 0 0,0
16.12.2017 17:00:00 7,2 1,1 6,0 7,5 9,6 22 12 39 21 NW 1022,7 60 23 0,0
16.12.2017 16:00:00 7,1 1,4 6,7 7,4 9,6 15 8 31 17 NW 1022,0 10 52 0,0
16.12.2017 15:00:00 7,0 0,4 7,3 7,4 9,6 16 8 26 14 NW 1021,8 60 56 0,0
16.12.2017 14:00:00 6,9 -0,6 6,8 7,4 9,6 15 8 29 16 NNW 1021,8 10 35 0,0
16.12.2017 13:00:00 6,5 0,0 6,5 7,4 9,6 15 8 32 17 NNW 1021,3 10 40 0,0
16.12.2017 12:00:00 6,6 0,1 5,2 7,4 9,6 16 9 32 17 N 1021,1 10 26 0,0
16.12.2017 11:00:00 5,8 -0,1 4,5 7,4 9,6 18 10 39 21 N 1020,6 10 6 0,0
16.12.2017 10:00:00 6,0 0,3 3,7 7,4 9,6 13 7 31 17 N 1019,5 60 8 0,0
16.12.2017 09:00:00 5,9 0,6 3,4 7,4 9,6 17 9 34 18 NNW 1018,5 60 0 0,0
16.12.2017 08:00:00 5,5 0,1 2,0 7,5 9,6 13 7 31 17 NNW 1017,9 60 0 0,0
16.12.2017 07:00:00 5,1 -0,3 1,3 7,5 9,6 15 8 31 17 N 1017,1 10 0 0,0
16.12.2017 06:00:00 4,6 -0,4 1,5 7,5 9,6 13 7 28 15 N 1016,4 10 0 0,0
16.12.2017 05:00:00 4,8 -0,2 2,1 7,5 9,6 16 9 36 19 N 1016,1 10 0 0,0
16.12.2017 04:00:00 5,2 0,4 3,1 7,5 9,7 16 9 35 19 N 1015,6 10 0 0,0
16.12.2017 03:00:00 5,5 1,2 3,6 7,5 9,6 18 10 39 21 N 1014,6 10 0 0,0
16.12.2017 02:00:00 5,6 1,3 3,4 7,5 9,6 18 10 41 22 N 1013,8 10 0 0,0
16.12.2017 01:00:00 5,8 1,3 4,5 7,5 9,6 22 12 42 23 N 1013,1 10 0 0,0
16.12.2017 00:00:00 6,1 1,4 4,9 7,5 9,6 22 12 43 23 N 1012,1 10 0 0,0
15.12.2017 23:00:00 6,1 1,2 4,7 7,5 9,7 24 13 49 26 N 1011,5 10 0 0,0
15.12.2017 22:00:00 6,3 1,6 4,6 7,5 9,7 24 13 51 28 N 1010,6 60 0 0,0
15.12.2017 21:00:00 5,7 0,8 3,8 7,5 9,6 24 13 45 24 N 1009,9 60 0 0,0
15.12.2017 20:00:00 5,9 0,6 4,0 7,5 9,6 24 13 49 27 N 1008,7 10 0 0,0
15.12.2017 19:00:00 6,1 0,4 4,0 7,5 9,7 20 11 42 23 NNW 1007,5 60 0 0,0
15.12.2017 18:00:00 6,3 0,6 4,1 7,5 9,7 22 12 46 25 N 1006,4 10 0 0,0
15.12.2017 17:00:00 6,4 0,1 4,9 7,5 9,7 24 13 49 26 NNW 1005,2 10 23 0,0
15.12.2017 16:00:00 6,4 0,7 5,6 7,5 9,7 19 11 41 22 NNW 1004,0 60 35 0,0
15.12.2017 15:00:00 6,6 0,7 6,0 7,5 9,7 22 12 46 25 NNW 1003,1 58 36 0,0
15.12.2017 14:00:00 6,2 1,3 5,9 7,5 9,7 24 13 52 28 NNW 1002,2 10 2 0,0
15.12.2017 13:00:00 6,4 1,9 5,3 7,5 9,7 24 13 51 28 NNW 1001,3 10 17 0,0
15.12.2017 12:00:00 5,9 1,6 5,5 7,5 9,7 28 15 62 33 NNW 1000,3 10 0 0,0
15.12.2017 11:00:00 6,0 1,9 5,4 7,5 9,7 29 16 61 33 NNW 998,8 10 0 0,0
15.12.2017 10:00:00 7,0 1,9 5,8 7,5 9,7 32 18 71 39 NNW 996,4 59 0 0,0
15.12.2017 09:00:00 7,7 2,8 5,4 7,4 9,7 35 19 70 38 NW 994,9 10 0 0,2
15.12.2017 08:00:00 8,0 2,9 6,8 7,4 9,7 44 24 67 36 WNW 994,9 10 0 0,0
15.12.2017 07:00:00 8,1 3,2 6,8 7,4 9,7 39 21 67 36 WNW 994,7 10 0 0,0
15.12.2017 06:00:00 7,9 3,2 5,2 7,5 9,7 39 21 58 32 WNW 995,0 41 0 0,0
15.12.2017 05:00:00 7,4 3,1 5,3 7,5 9,7 35 19 56 31 WNW 995,6 10 0 0,0
15.12.2017 04:00:00 7,4 2,3 5,7 7,5 9,7 34 18 55 30 WNW 995,8 10 0 0,0
15.12.2017 03:00:00 7,1 1,4 5,3 7,5 9,7 31 17 56 30 WNW 995,5 10 0 0,0
15.12.2017 02:00:00 7,1 1,2 5,7 7,5 9,7 31 17 62 34 WNW 995,2 10 0 0,0
15.12.2017 01:00:00 7,2 1,5 4,9 7,5 9,7 34 18 64 35 NW 994,6 10 0 0,0
15.12.2017 00:00:00 6,7 3,1 5,1 7,5 9,7 29 16 66 36 NW 993,1 10 0 0,2
14.12.2017 23:00:00 7,2 3,1 4,9 7,5 9,7 39 21 69 38 WNW 992,1 10 0 0,0
14.12.2017 22:00:00 6,2 3,4 4,0 7,5 9,7 37 20 58 31 W 991,4 19 0 0,4
14.12.2017 21:00:00 5,6 2,2 3,9 7,5 9,8 34 18 61 33 W 991,9 10 0 0,2
14.12.2017 20:00:00 5,8 1,3 2,6 7,5 9,8 26 14 40 22 W 992,4 10 0 0,0
14.12.2017 19:00:00 5,3 1,4 2,3 7,6 9,8 29 16 45 24 WNW 993,1 15 0 0,2
14.12.2017 18:00:00 4,1 0,8 2,4 7,6 9,7 24 13 69 38 W 993,2 10 0 0,2
14.12.2017 17:00:00 4,4 2,6 2,5 7,6 9,8 26 14 67 36 W 993,4 9 0 1,2
14.12.2017 16:00:00 5,8 1,7 4,3 7,6 9,8 28 15 46 25 W 993,1 10 0 0,0
14.12.2017 15:00:00 5,2 1,7 4,1 7,6 9,8 28 15 68 37 WSW 993,8 60 3 0,2
14.12.2017 14:00:00 6,9 3,5 4,3 7,6 9,8 28 15 45 25 W 994,9 10 14 0,0
14.12.2017 13:00:00 5,3 2,3 4,1 7,6 9,8 41 22 62 34 W 996,7 12 7 0,6
14.12.2017 12:00:00 5,9 2,7 4,1 7,6 9,8 27 15 65 35 W 997,5 60 0 0,6
14.12.2017 11:00:00 7,2 1,5 6,4 7,6 9,8 29 16 54 29 W 997,8 10 33 0,0
14.12.2017 10:00:00 6,2 1,1 4,8 7,6 9,8 34 19 54 29 W 998,5 38 11 0,0
14.12.2017 09:00:00 6,5 1,8 3,4 7,7 9,8 28 15 52 28 W 998,8 10 0 0,0
14.12.2017 08:00:00 5,5 2,8 3,9 7,7 9,8 34 18 67 36 W 999,4 10 0 0,2
14.12.2017 07:00:00 6,0 2,5 4,1 7,7 9,8 35 19 55 30 W 999,5 10 0 0,0
14.12.2017 06:00:00 5,8 1,7 3,4 7,8 9,8 34 18 57 31 W 1000,1 10 0 0,0
14.12.2017 05:00:00 5,1 1,2 3,2 7,8 9,8 34 18 72 39 W 1000,9 10 0 0,2
14.12.2017 04:00:00 6,3 0,8 2,6 7,8 9,8 43 23 70 38 W 1001,1 20 0 0,8
14.12.2017 03:00:00 6,5 1,4 5,2 7,9 9,8 39 21 69 37 W 1001,1 10 0 0,0
14.12.2017 02:00:00 7,4 0,6 5,9 7,9 9,8 48 26 80 43 WNW 1000,9 10 0 0,0
14.12.2017 01:00:00 7,0 0,0 5,7 8,0 9,8 48 26 88 47 WNW 1000,5 10 0 0,0
14.12.2017 00:00:00 7,1 1,0 4,3 8,0 9,8 48 26 104 56 WNW 999,7 10 0 0,0
13.12.2017 23:00:00 5,8 2,8 4,3 8,1 9,8 69 37 112 60 WNW 998,2 7 0 0,2
13.12.2017 22:00:00 6,2 4,7 4,4 8,1 9,8 59 32 86 47 WNW 997,1 6 0 2,0
13.12.2017 21:00:00 8,2 3,0 5,2 8,1 9,8 37 20 64 34 W 996,6 10 0 0,2
13.12.2017 20:00:00 7,1 3,5 5,9 8,1 9,8 41 22 64 35 W 997,8 10 0 0,8
13.12.2017 19:00:00 8,1 3,5 6,3 8,1 9,8 35 19 59 32 W 997,7 19 0 0,0
13.12.2017 18:00:00 8,8 5,0 7,1 8,0 9,9 42 23 77 42 WNW 997,6 10 0 0,2
13.12.2017 17:00:00 8,8 5,7 7,7 7,9 9,8 46 25 71 38 W 997,3 10 14 0,6
13.12.2017 16:00:00 9,8 8,7 8,7 7,9 9,8 37 20 67 36 WSW 996,9 10 5 1,4
13.12.2017 15:00:00 9,0 8,1 8,4 7,9 9,9 34 18 58 31 SW 997,6 4,0 0 0,8
13.12.2017 14:00:00 9,1 7,5 8,6 7,8 9,8 37 20 64 35 SW 999,4 7 0 0,6
13.12.2017 13:00:00 9,8 7,2 8,6 7,8 9,9 34 18 61 33 WSW 1000,8 17 0 0,2
13.12.2017 12:00:00 9,5 7,9 8,8 7,8 9,9 34 19 52 28 SW 1002,5 7 0 0,2
13.12.2017 11:00:00 9,1 6,9 7,5 7,8 9,9 27 15 48 26 WSW 1003,5 17 0 0,2
13.12.2017 10:00:00 8,5 6,5 7,1 7,8 9,9 29 16 49 27 W 1004,6 3,6 0 0,6
13.12.2017 09:00:00 8,3 5,9 7,1 7,7 9,9 26 14 40 22 W 1004,9 18 0 0,2
13.12.2017 08:00:00 8,2 5,8 6,6 7,7 9,9 19 10 35 19 W 1005,4 17 0 0,0
13.12.2017 07:00:00 8,0 4,8 6,8 7,6 9,9 31 17 44 24 W 1005,5 10 0 0,0
13.12.2017 06:00:00 8,5 5,9 7,6 7,6 9,9 29 16 41 22 W 1005,3 16 0 0,0
13.12.2017 05:00:00 8,7 7,5 7,7 7,6 9,9 29 16 51 28 W 1004,8 10 0 0,6
13.12.2017 04:00:00 8,0 7,4 6,6 7,6 9,9 29 16 50 27 SSW 1005,1 5 0 0,8
13.12.2017 03:00:00 6,8 6,1 5,9 7,6 9,9 32 17 50 27 SSW 1005,9 3,1 0 0,4
13.12.2017 02:00:00 6,3 5,6 5,9 7,6 9,9 35 19 56 30 SSW 1007,2 4,9 0 0,6
13.12.2017 01:00:00 6,6 5,7 5,9 7,6 9,9 34 18 54 29 SSW 1008,1 3,7 0 0,2
13.12.2017 00:00:00 6,8 4,9 5,8 7,6 10,0 31 17 48 26 SSW 1008,9 10 0 0,0
12.12.2017 23:00:00 6,8 4,6 5,7 7,6 10,0 26 14 38 20 SSW 1010,1 41 0 0,0
12.12.2017 22:00:00 6,6 4,1 4,9 7,6 10,0 20 11 35 19 SSW 1011,0 50 0 0,0
12.12.2017 21:00:00 5,7 3,7 3,8 7,6 10,0 21 11 28 15 SSW 1011,4 10 0 -

tt = Température de l'air
td = dewpoint
tt 5cm = Température de l'air 5cm
tt -20cm = Température de l'air -20cm
tt -100cm = Température de l'air -100cm
ff = Vitesse du vent
fx = gusts
dd = Direction du vent
ppp = reduced air pressure
vv = visibility
sd = Ensoleillement
rr = Quantités de précipitations

stations d'obs. à proximité